| time (UTC) | temp C | wind direction | speed KPH | gust KPH | rain 1hr cm | rain 24hr cm | rain mn cm | humidity % | barometer mb |
| 20260503054547 | 20 | 36 | 0.0 | 1.6 | 0.00 | 0.00 | 0.00 | 62 | 1011.9 |
| 20260503053049 | 20 | 36 | 0.0 | 3.2 | 0.00 | 0.00 | 0.00 | 61 | 1011.8 |
| 20260503051549 | 20 | 98 | 0.0 | 3.2 | 0.00 | 0.00 | 0.00 | 60 | 1011.5 |
| 20260503050046 | 20 | 141 | 0.0 | 1.6 | 0.00 | 0.00 | 0.00 | 60 | 1011.4 |
| 20260503044546 | 21 | 142 | 0.0 | 0.0 | 0.00 | 0.00 | 0.00 | 60 | 1011.5 |
| 20260503043046 | 21 | 142 | 1.6 | 3.2 | 0.00 | 0.00 | 0.00 | 60 | 1011.3 |
| 20260503041545 | 22 | 142 | 0.0 | 0.0 | 0.00 | 0.00 | 0.00 | 56 | 1011.0 |
| 20260503040048 | 22 | 142 | 0.0 | 1.6 | 0.00 | 0.00 | 0.00 | 56 | 1010.8 |
| 20260503034551 | 22 | 138 | 0.0 | 3.2 | 0.00 | 0.00 | 0.00 | 56 | 1010.7 |
| 20260503033049 | 22 | 138 | 0.0 | 1.6 | 0.00 | 0.00 | 0.00 | 55 | 1010.6 |
| 20260503031543 | 22 | 138 | 0.0 | 0.0 | 0.00 | 0.00 | 0.00 | 54 | 1010.3 |
| 20260503030042 | 23 | 138 | 0.0 | 0.0 | 0.00 | 0.00 | 0.00 | 53 | 1010.4 |
| 20260503024542 | 23 | 138 | 0.0 | 0.0 | 0.00 | 0.00 | 0.00 | 53 | 1010.3 |
| 20260503023043 | 23 | 138 | 0.0 | 1.6 | 0.00 | 0.00 | 0.00 | 51 | 1010.0 |
| 20260503021541 | 24 | 138 | 0.0 | 4.8 | 0.00 | 0.00 | 0.00 | 52 | 1009.9 |
| 20260503020040 | 25 | 134 | 0.0 | 4.8 | 0.00 | 0.00 | 0.00 | 49 | 1009.8 |
| 20260503014542 | 25 | 134 | 1.6 | 6.4 | 0.00 | 0.00 | 0.00 | 47 | 1009.5 |
| 20260503013049 | 26 | 107 | 1.6 | 4.8 | 0.00 | 0.00 | 0.00 | 45 | 1009.5 |
| 20260503011543 | 27 | 119 | 1.6 | 8.0 | 0.00 | 0.00 | 0.00 | 41 | 1009.3 |
| 20260503010054 | 27 | 163 | 3.2 | 11.3 | 0.00 | 0.00 | 0.00 | 37 | 1009.2 |
| 20260503004538 | 27 | 120 | 3.2 | 11.3 | 0.00 | 0.00 | 0.00 | 36 | 1009.3 |
| 20260503003037 | 27 | 132 | 3.2 | 12.9 | 0.00 | 0.00 | 0.00 | 36 | 1009.1 |
| 20260503001536 | 27 | 149 | 4.8 | 12.9 | 0.00 | 0.00 | 0.00 | 37 | 1009.1 |
| 20260503000035 | 28 | 153 | 4.8 | 12.9 | 0.00 | 0.00 | 0.00 | 41 | 1009.1 |
| 20260502234538 | 28 | 144 | 4.8 | 14.5 | 0.00 | 0.00 | 0.00 | 42 | 1009.1 |
| 20260502233031 | 28 | 196 | 6.4 | 16.1 | 0.00 | 0.00 | 0.00 | 44 | 1009.1 |
| 20260502231531 | 28 | 173 | 3.2 | 14.5 | 0.00 | 0.00 | 0.00 | 48 | 1009.0 |
| 20260502230031 | 28 | 148 | 6.4 | 14.5 | 0.00 | 0.00 | 0.00 | 51 | 1009.3 |
| 20260502224529 | 28 | 170 | 4.8 | 14.5 | 0.00 | 0.00 | 0.00 | 52 | 1009.3 |
| 20260502223028 | 28 | 132 | 8.0 | 16.1 | 0.00 | 0.00 | 0.00 | 54 | 1009.5 |
| 20260502221527 | 28 | 123 | 6.4 | 17.7 | 0.00 | 0.00 | 0.00 | 55 | 1009.5 |
| 20260502220027 | 28 | 118 | 4.8 | 17.7 | 0.00 | 0.00 | 0.00 | 56 | 1009.7 |
| 20260502214535 | 28 | 165 | 4.8 | 14.5 | 0.00 | 0.00 | 0.00 | 57 | 1009.8 |
| 20260502213028 | 28 | 138 | 8.0 | 17.7 | 0.00 | 0.00 | 0.00 | 58 | 1010.1 |
| 20260502211527 | 28 | 173 | 4.8 | 16.1 | 0.00 | 0.00 | 0.00 | 62 | 1010.2 |
| 20260502210029 | 28 | 159 | 6.4 | 14.5 | 0.00 | 0.00 | 0.00 | 62 | 1010.3 |
| 20260502204521 | 28 | 122 | 4.8 | 17.7 | 0.00 | 0.00 | 0.00 | 63 | 1010.5 |
| 20260502203020 | 28 | 109 | 8.0 | 20.9 | 0.00 | 0.00 | 0.00 | 63 | 1010.5 |
| 20260502201523 | 28 | 165 | 6.4 | 17.7 | 0.00 | 0.00 | 0.00 | 67 | 1010.6 |
| 20260502200019 | 28 | 190 | 6.4 | 20.9 | 0.00 | 0.00 | 0.00 | 66 | 1010.6 |
| 20260502194520 | 28 | 146 | 9.7 | 16.1 | 0.00 | 0.00 | 0.00 | 66 | 1010.8 |
| 20260502193018 | 28 | 167 | 8.0 | 22.5 | 0.00 | 0.00 | 0.00 | 63 | 1011.1 |
| 20260502191517 | 28 | 170 | 8.0 | 16.1 | 0.00 | 0.00 | 0.00 | 62 | 1011.3 |
| 20260502190022 | 28 | 155 | 8.0 | 16.1 | 0.00 | 0.00 | 0.00 | 63 | 1011.3 |
| 20260502184520 | 27 | 155 | 6.4 | 20.9 | 0.00 | 0.00 | 0.00 | 66 | 1011.4 |
| 20260502183015 | 28 | 190 | 8.0 | 17.7 | 0.00 | 0.00 | 0.00 | 67 | 1011.4 |
| 20260502181515 | 28 | 114 | 8.0 | 17.7 | 0.00 | 0.00 | 0.00 | 64 | 1011.5 |
| 20260502163009 | 27 | 123 | 1.6 | 12.9 | 0.00 | 0.00 | 0.00 | 63 | 1011.5 |
| 20260502161505 | 27 | 186 | 3.2 | 9.7 | 0.00 | 0.00 | 0.00 | 62 | 1011.5 |
| 20260502151559 | 24 | 319 | 0.0 | 3.2 | 0.00 | 0.00 | 0.00 | 69 | 1011.4 |
| 20260502123031 | 18 | 313 | 1.6 | 8.0 | 0.00 | 0.00 | 0.00 | 84 | 1009.6 |
| 20260502121532 | 18 | 306 | 3.2 | 9.7 | 0.00 | 0.00 | 0.00 | 85 | 1009.6 |
| 20260502114534 | 18 | 313 | 0.0 | 3.2 | 0.00 | 0.00 | 0.00 | 84 | 1009.3 |
| 20260502113028 | 18 | 310 | 0.0 | 3.2 | 0.00 | 0.00 | 0.00 | 83 | 1009.2 |
| 20260502111523 | 18 | 310 | 0.0 | 6.4 | 0.00 | 0.00 | 0.00 | 83 | 1009.1 |
| 20260502110022 | 18 | 298 | 1.6 | 4.8 | 0.00 | 0.00 | 0.00 | 83 | 1009.1 |
| 20260502104523 | 19 | 309 | 1.6 | 8.0 | 0.00 | 0.00 | 0.00 | 84 | 1009.0 |
| 20260502103020 | 18 | 307 | 1.6 | 6.4 | 0.00 | 0.00 | 0.00 | 85 | 1009.1 |
| 20260502101520 | 18 | 319 | 0.0 | 3.2 | 0.00 | 0.00 | 0.00 | 84 | 1009.1 |
| 20260502091513 | 20 | 319 | 1.6 | 3.2 | 0.00 | 0.00 | 0.00 | 85 | 1009.2 |
| 20260502070108 | 20 | 167 | 0.0 | 1.6 | 0.00 | 0.00 | 0.00 | 86 | 1010.4 |
| 20260502064620 | 20 | 167 | 0.0 | 0.0 | 0.00 | 0.00 | 0.00 | 85 | 1010.4 |
| 20260502063119 | 21 | 167 | 0.0 | 0.0 | 0.00 | 0.00 | 0.00 | 85 | 1010.6 |
| 20260502061555 | 21 | 167 | 0.0 | 0.0 | 0.00 | 0.00 | 0.00 | 85 | 1010.6 |
| 20260502060054 | 21 | 167 | 0.0 | 0.0 | 0.00 | 0.00 | 0.00 | 84 | 1010.8 |